Regional Weather Roundup
Issued by NWS

Home | Current Version | Previous Version | Graphics & Text | Print | Product List | Glossary On
Versions: 1 2 3 4 5 6 7 8 9 10 11 12 13 14 15 16 17 18 19 20 21 22 23 24 25 26 27 28 29 30 31 32 33 34 35 36 37 38 39 40 41 42 43 44 45 46 47 48 49 50
000
ASUS43 KOAX 291810
RWRNE

WEATHER ROUNDUP FOR NEBRASKA
NATIONAL WEATHER SERVICE OMAHA NE
100 PM CDT WED JUL 29 2015

NOTES: SATELLITE DATA IS BEING USED TO AUGMENT CLOUD COVER ABOVE
       12000 FEET.
       "FAIR" INDICATES FEW OR NO CLOUDS BELOW 12,000 FEET WITH NO
       SIGNIFICANT WEATHER AND/OR OBSTRUCTIONS TO VISIBILITY.

  * THESE STATIONS DO NOT REPORT WEATHER SUCH AS RAIN...SNOW OR FOG.

NEZ001>004-019>022-054>056-291900-
NEBRASKA PANHANDLE

CITY           SKY/WX    TMP DP  RH WIND       PRES   REMARKS
SCOTTSBLUFF    SUNNY     76  48  37 E10       30.29F
6HR MIN TEMP:  49; 6HR MAX TEMP:  76;

ALLIANCE       SUNNY     77  46  33 S10       30.29F
6HR MIN TEMP:  42; 6HR MAX TEMP:  77;

CHADRON        SUNNY     79  44  28 VRB7      30.26F
6HR MIN TEMP:  44; 6HR MAX TEMP:  79;

KIMBALL        SUNNY     75  45  33 S8G17     30.32S
SIDNEY         SUNNY     80  46  30 S17G23    30.31F
6HR MIN TEMP:  53; 6HR MAX TEMP:  80;

$$

NEZ057>060-069>072-079>082-291900-
SOUTHWEST NEBRASKA

CITY           SKY/WX    TMP DP  RH WIND       PRES   REMARKS
NORTH PLATTE   SUNNY     78  51  38 E6        30.28F
6HR MIN TEMP:  55; 6HR MAX TEMP:  78;

IMPERIAL       MOSUNNY   77  49  37 SE10G18   30.31R
6HR MIN TEMP:  56; 6HR MAX TEMP:  77;

LEXINGTON      MOSUNNY   78  49  37 NE6       30.26S
MCCOOK         CLOUDY    76  53  44 VRB5      30.28R
6HR MIN TEMP:  55; 6HR MAX TEMP:  77;

OGALLALA       SUNNY     78  49  35 SE10G17   30.29F
$$

NEZ005>010-023>029-035>040-094-291900-
NORTH CENTRAL NEBRASKA

CITY           SKY/WX    TMP DP  RH WIND       PRES   REMARKS
VALENTINE      SUNNY     84  38  19 W14G23    30.23F
6HR MIN TEMP:  50; 6HR MAX TEMP:  84;

AINSWORTH      SUNNY     81  41  23 W13G18    30.25S
BROKEN BOW     SUNNY     81  47  30 VRB6      30.26F
6HR MIN TEMP:  53; 6HR MAX TEMP:  81;

O`NEILL        SUNNY     82  47  28 W12       30.22F
ORD            SUNNY     82  41  23 CALM      30.22F
6HR MIN TEMP:  52; 6HR MAX TEMP:  82;

THEDFORD       SUNNY     80  47  31 S8        30.28S
$$

NEZ041-046>049-061>064-073>077-083>087-291900-
SOUTH CENTRAL NEBRASKA

CITY           SKY/WX    TMP DP  RH WIND       PRES   REMARKS
GRAND ISLAND   FAIR      81  47  30 NE8       30.23F
6HR MIN TEMP:  57; 6HR MAX TEMP:  81;

AURORA         FAIR      78  46  32 N3        30.23F
HASTINGS       FAIR      80  52  37 NE12      30.22F
6HR MIN TEMP:  58; 6HR MAX TEMP:  81;

HEBRON         FAIR      81  54  39 NE9       30.18F
HOLDREGE       FAIR      76  49  38 E9        30.24S
KEARNEY *      FAIR      79  50  36 E7        30.24S
YORK           FAIR      79  55  44 CALM      30.22F
$$

NEZ011>018-030>034-042>045-291900-
NORTHEAST NEBRASKA

CITY           SKY/WX    TMP DP  RH WIND       PRES   REMARKS
NORFOLK        FAIR      82  48  30 W9        30.19F
6HR MIN TEMP:  55; 6HR MAX TEMP:  83;

ALBION         FAIR      82  37  20 SW6       30.21F
BLAIR          FAIR      80  49  34 W5        30.18F
COLUMBUS *     FAIR      81  52  36 NW6       30.19F
FREMONT        FAIR      82  50  33 W8        30.19F
TEKAMAH        FAIR      82  60  47 W7        30.16F
6HR MIN TEMP:  60; 6HR MAX TEMP:  82;

WAYNE          FAIR      81  53  38 W13       30.19F
$$

NEZ050>053-065>068-078-088>093-291900-
SOUTHEAST NEBRASKA

CITY           SKY/WX    TMP DP  RH WIND       PRES   REMARKS
LINCOLN        FAIR      85  44  23 N10       30.19F
6HR MIN TEMP:  60; 6HR MAX TEMP:  86;

OMAHA EPPLEY   FAIR      83  52  34 NW12      30.16F
6HR MIN TEMP:  63; 6HR MAX TEMP:  85;

BEATRICE       FAIR      83  55  38 N10       30.18F
FALLS CITY     FAIR      81  65  58 N6        30.16S
6HR MIN TEMP:  72; 6HR MAX TEMP:  82;

NEBRASKA CITY  FAIR      80  52  37 N6        30.18S
PLATTSMOUTH    FAIR      82  51  34 NW9       30.18S
$$

NEZ044-045-051>053-067-291900-
OMAHA AREA

CITY           SKY/WX    TMP DP  RH WIND       PRES   REMARKS
OMAHA EPPLEY   FAIR      83  52  34 NW12      30.16F
6HR MIN TEMP:  63; 6HR MAX TEMP:  85;

BLAIR          FAIR      80  49  34 W5        30.18F
FREMONT        FAIR      82  50  33 W8        30.19F
MILLARD        FAIR      84  49  30 NW8       30.17F
OFFUTT AFB     FAIR      84  48  28 NW13      30.16S
PLATTSMOUTH    FAIR      82  51  34 NW9       30.18S
WAHOO          FAIR      82  52  36 NW7       30.19F
$$


USA.gov is the U.S. government's official web portal to all federal, state and local government web resources and services.